Lakefront Airport New Orleans US
ICAO: KNEW
IATA: NEW
Category: Medium
Scheduled Services: No

Elevation: 8 ft
TransAlt. 18000 ft.

Airport Communications:
NEW ORLEANS APP/DEP:123.85
ATIS:124.9
CLNC DEL:119.9
CTAF:119.9
GND:121.7
ARNG OPS:141.35
DE RIDDER RDO:122.6
TWR:119.9
UNICOM:122.95

KNEW Zoom In..

Runways:

(A) RW 09 length 3114 ft width 75 ft
---- / hdg 87

(B) RW 18L length 3697 ft width 75 ft
---- / hdg 177

(C) RW 18R length 6879 ft width 150 ft
ILS 111.30 / hdg 177

(D) RW 27 length 3114 ft width 75 ft
---- / hdg 267

(E) RW 36L length 6879 ft width 150 ft
---- / hdg 357

(F) RW 36R length 3697 ft width 75 ft
---- / hdg 357

Location; KNEW
Day. 15 / Time. 21.53 Zulu
* Altimeter: 29.98
* Temperature: 32° c. 89.6°f.
* Wind from: 250° Speed 04 kn.
Dewpoint: 24° c.
Visibility: 10 Statute Miles.
Clouds: Clear (automated report).

KNEW 152153Z 25004KT 10SM CLR 32/24 A2998 RMK AO2 LTG DSNT SE TSB2055E10 SLP145 T03220244


Wind From 250°
Speed 04 kn.

 
 
jpsmedia.com for Web Design worldairports.se 2018   terms of use